Location: Clarion
(42.7316°N, 93.7330°W)
Time: 08:53:04
(UTC+00:00)

NOSS 3-1 (C) - Pass Details

Date: 22 April 2026
Orbit: 618 x 1583 km, 63.4° (Epoch: 10 January)

Event Time Altitude Azimuth Distance (km) Brightness Sun altitude
Rises 03:16:43 0° 324° (NW) 3,768 8.0 -21.8°
Reaches altitude 10° 03:19:07 10° 327° (NNW) 2,940 7.1 -22.1°
Maximum altitude 03:26:19 74° 53° (NE) 1,332 4.1 -23.1°
Enters shadow 03:29:48 40° 128° (SE) 1,921 4.5 -23.5°
